SEU533 LUKK-LCLK

Flight info

Callsign SEU533
Flight time 2h 5m
Altitude 35000
Route LIPTA DCT USHUZ DCT RIPGA DCT PILAT DCT GOSLO DCT RIXEN UG1 IST UT35 AYT UA16 TOMBI DCT DASNI DCT BONEK
Aircraft B738/M-SDE2E3FGHIRWXY/LB1

Departure

Time 2026-04-29 11:10
Airport Chişinău International Airport (LUKK)

Arrival

Time 2026-04-29 13:15
Airport Larnaca International Airport (LCLK)
Time Latitude Longitude Altitude Speed Heading
2026-04-29 10:49 46.93366 28.93599 316 ft 0 kts
2026-04-29 11:04 46.93391 28.93602 316 ft 5 kts 352°
2026-04-29 11:04 46.93410 28.93577 317 ft 2 kts 289°
2026-04-29 11:04 46.93417 28.93533 318 ft 6 kts 280°
2026-04-29 11:05 46.93382 28.93480 319 ft 11 kts 187°
2026-04-29 11:05 46.93283 28.93464 319 ft 15 kts 187°
2026-04-29 11:05 46.93180 28.93446 320 ft 14 kts 187°
2026-04-29 11:05 46.93072 28.93423 320 ft 18 kts 189°
2026-04-29 11:06 46.92932 28.93409 321 ft 21 kts 183°
2026-04-29 11:06 46.92796 28.93408 321 ft 11 kts 203°
2026-04-29 11:06 46.92783 28.93294 324 ft 12 kts 271°
2026-04-29 11:06 46.92781 28.93157 327 ft 15 kts 266°
2026-04-29 11:07 46.92775 28.92973 332 ft 20 kts 265°
2026-04-29 11:07 46.92765 28.92739 338 ft 25 kts 275°
2026-04-29 11:07 46.92767 28.92465 346 ft 29 kts 271°
2026-04-29 11:07 46.92768 28.92165 356 ft 29 kts 270°
2026-04-29 11:08 46.92756 28.91860 366 ft 30 kts 266°
2026-04-29 11:08 46.92746 28.91551 378 ft 30 kts 269°
2026-04-29 11:08 46.92743 28.91236 387 ft 31 kts 269°
2026-04-29 11:08 46.92739 28.90920 394 ft 23 kts 274°
2026-04-29 11:09 46.92757 28.90798 395 ft 6 kts 245°
2026-04-29 11:09 46.92734 28.90815 395 ft 7 kts 100°
2026-04-29 11:09 46.92737 28.90935 393 ft 20 kts 86°
2026-04-29 11:09 46.92749 28.91543 378 ft 103 kts 89°
2026-04-29 11:10 46.92774 28.92986 381 ft 172 kts 88°
2026-04-29 11:10 46.92806 28.94745 1250 ft 175 kts 86°
2026-04-29 11:10 46.92852 28.96464 2190 ft 175 kts 85°
2026-04-29 11:10 46.92924 28.98281 2761 ft 187 kts 84°
2026-04-29 11:11 46.93000 29.00175 3404 ft 195 kts 84°
2026-04-29 11:11 46.93044 29.02216 3921 ft 209 kts 86°
2026-04-29 11:11 46.93075 29.04423 4502 ft 225 kts 87°
2026-04-29 11:11 46.92797 29.06691 5425 ft 231 kts 114°
2026-04-29 11:12 46.91830 29.08496 6369 ft 232 kts 140°
2026-04-29 11:12 46.90421 29.09678 7155 ft 238 kts 160°
2026-04-29 11:12 46.88807 29.10162 7878 ft 241 kts 184°
2026-04-29 11:12 46.87197 29.09578 8474 ft 246 kts 213°
2026-04-29 11:13 46.85898 29.08003 9117 ft 249 kts 234°
2026-04-29 11:13 46.84868 29.05908 9764 ft 258 kts 240°
2026-04-29 11:13 46.83881 29.03700 10519 ft 264 kts 241°
2026-04-29 11:13 46.82864 29.01417 11107 ft 277 kts 241°
2026-04-29 11:14 46.81787 28.99032 11674 ft 290 kts 240°
2026-04-29 11:14 46.80638 28.96525 12226 ft 303 kts 240°
2026-04-29 11:14 46.79457 28.93958 12876 ft 312 kts 240°
2026-04-29 11:14 46.78246 28.91325 13770 ft 313 kts 240°
2026-04-29 11:15 46.77046 28.88707 14578 ft 317 kts 240°
2026-04-29 11:15 46.75829 28.86037 15362 ft 320 kts 240°
2026-04-29 11:15 46.74588 28.83314 16151 ft 324 kts 240°
2026-04-29 11:15 46.73342 28.80585 16952 ft 326 kts 240°
2026-04-29 11:16 46.72083 28.77840 17721 ft 329 kts 240°
2026-04-29 11:16 46.70815 28.75086 18498 ft 331 kts 240°
2026-04-29 11:16 46.69525 28.72290 19156 ft 336 kts 241°
2026-04-29 11:16 46.68234 28.69490 19834 ft 339 kts 241°
2026-04-29 11:17 46.66907 28.66622 20533 ft 342 kts 241°
2026-04-29 11:17 46.65573 28.63744 21145 ft 346 kts 240°
2026-04-29 11:17 46.64090 28.60989 21829 ft 352 kts 233°
2026-04-29 11:17 46.62295 28.58565 22433 ft 361 kts 224°
2026-04-29 11:18 46.60190 28.56543 23028 ft 370 kts 217°
2026-04-29 11:18 46.57825 28.54878 23618 ft 379 kts 211°
2026-04-29 11:18 46.55389 28.53487 24101 ft 386 kts 208°
2026-04-29 11:18 46.52848 28.52174 24694 ft 389 kts 207°
2026-04-29 11:19 46.50298 28.50903 25222 ft 392 kts 207°
2026-04-29 11:19 46.47701 28.49614 25696 ft 396 kts 207°
2026-04-29 11:19 46.45081 28.48303 26171 ft 399 kts 207°
2026-04-29 11:19 46.42461 28.46977 26605 ft 403 kts 208°
2026-04-29 11:20 46.39809 28.45625 27124 ft 404 kts 208°
2026-04-29 11:20 46.37164 28.44269 27535 ft 408 kts 208°
2026-04-29 11:20 46.34493 28.42897 28017 ft 410 kts 208°
2026-04-29 11:20 46.31816 28.41520 28402 ft 414 kts 209°
2026-04-29 11:21 46.29071 28.40107 28812 ft 417 kts 209°
2026-04-29 11:21 46.26343 28.38705 29177 ft 421 kts 209°
2026-04-29 11:21 46.23584 28.37290 29623 ft 423 kts 209°
2026-04-29 11:21 46.20835 28.35883 30053 ft 424 kts 209°
2026-04-29 11:22 46.18023 28.34445 30472 ft 427 kts 208°
2026-04-29 11:22 46.15218 28.33016 31011 ft 426 kts 208°
2026-04-29 11:22 46.12448 28.31614 31597 ft 422 kts 208°
2026-04-29 11:22 46.09703 28.30223 32056 ft 421 kts 208°
2026-04-29 11:23 46.06959 28.28829 32431 ft 422 kts 208°
2026-04-29 11:23 46.04194 28.27420 32751 ft 424 kts 208°
2026-04-29 11:23 46.01380 28.25989 33208 ft 422 kts 208°
2026-04-29 11:23 45.98595 28.24576 33513 ft 423 kts 208°
2026-04-29 11:24 45.95830 28.23172 33808 ft 424 kts 208°
2026-04-29 11:24 45.93060 28.21768 34137 ft 423 kts 208°
2026-04-29 11:24 45.90234 28.20338 34419 ft 423 kts 208°
2026-04-29 11:24 45.87494 28.18952 34739 ft 422 kts 209°
2026-04-29 11:25 45.84699 28.17539 35003 ft 423 kts 208°
2026-04-29 11:25 45.81924 28.16137 35293 ft 423 kts 208°
2026-04-29 11:25 45.79169 28.14750 35646 ft 420 kts 208°
2026-04-29 11:25 45.76384 28.13381 35903 ft 421 kts 207°
2026-04-29 11:26 45.70745 28.10964 36174 ft 429 kts 204°
2026-04-29 11:26 45.64919 28.08641 36198 ft 441 kts 204°
2026-04-29 11:27 45.58948 28.06255 36201 ft 452 kts 204°
2026-04-29 11:27 45.52855 28.03806 36201 ft 454 kts 204°
2026-04-29 11:28 45.46811 28.01370 36188 ft 453 kts 204°
2026-04-29 11:28 45.40754 27.98919 36198 ft 454 kts 204°
2026-04-29 11:29 45.34705 27.96475 36204 ft 451 kts 204°
2026-04-29 11:29 45.28671 27.94034 36200 ft 452 kts 205°
2026-04-29 11:30 45.22583 27.91873 36191 ft 459 kts 198°
2026-04-29 11:30 45.19379 27.91552 36191 ft 472 kts 186°
2026-04-29 11:30 45.16073 27.92128 36184 ft 487 kts 175°
2026-04-29 11:31 45.09544 27.95012 36177 ft 496 kts 167°
2026-04-29 11:31 45.03113 27.98482 36176 ft 495 kts 166°
2026-04-29 11:32 44.96712 28.02027 36180 ft 495 kts 166°
2026-04-29 11:32 44.93499 28.03786 35982 ft 493 kts 166°
2026-04-29 11:32 44.90273 28.05535 36136 ft 493 kts 166°
2026-04-29 11:33 44.87075 28.07249 36449 ft 498 kts 166°
2026-04-29 11:33 44.83836 28.08917 36249 ft 494 kts 169°
2026-04-29 11:33 44.80567 28.10290 35885 ft 486 kts 173°
2026-04-29 11:33 44.77324 28.11381 36194 ft 484 kts 175°
2026-04-29 11:34 44.70716 28.13197 35914 ft 483 kts 178°
2026-04-29 11:34 44.67429 28.14036 36076 ft 480 kts 178°
2026-04-29 11:34 44.64137 28.14868 36017 ft 486 kts 178°
2026-04-29 11:35 44.60852 28.15703 36121 ft 484 kts 177°
2026-04-29 11:35 44.57498 28.16567 36157 ft 486 kts 178°
2026-04-29 11:35 44.50849 28.18305 36158 ft 488 kts 177°
2026-04-29 11:36 44.44191 28.20073 36153 ft 487 kts 177°
2026-04-29 11:36 44.37558 28.21845 36167 ft 485 kts 177°
2026-04-29 11:37 44.30910 28.23622 36151 ft 487 kts 177°
2026-04-29 11:37 44.24218 28.25406 36169 ft 489 kts 177°
2026-04-29 11:38 44.17568 28.27176 36143 ft 486 kts 177°
2026-04-29 11:38 44.10928 28.28939 36151 ft 489 kts 177°
2026-04-29 11:39 44.04255 28.30706 36160 ft 489 kts 177°
2026-04-29 11:39 43.97556 28.32477 36136 ft 489 kts 177°
2026-04-29 11:40 43.90877 28.34237 36138 ft 489 kts 177°
2026-04-29 11:40 43.84188 28.35995 36143 ft 489 kts 177°
2026-04-29 11:41 43.77566 28.37735 36146 ft 487 kts 177°
2026-04-29 11:41 43.70875 28.39484 36133 ft 487 kts 177°
2026-04-29 11:42 43.64232 28.41217 36150 ft 489 kts 177°
2026-04-29 11:42 43.57578 28.42950 36147 ft 487 kts 177°
2026-04-29 11:43 43.50931 28.44667 36151 ft 486 kts 177°
2026-04-29 11:43 43.44264 28.46244 36138 ft 487 kts 178°
2026-04-29 11:44 43.37616 28.47732 36164 ft 486 kts 178°
2026-04-29 11:44 43.30954 28.49220 36134 ft 484 kts 178°
2026-04-29 11:45 43.24328 28.50709 36172 ft 485 kts 178°
2026-04-29 11:45 43.17678 28.52210 36148 ft 485 kts 178°
2026-04-29 11:46 43.11023 28.53714 36161 ft 485 kts 178°
2026-04-29 11:46 43.04412 28.55209 36162 ft 484 kts 178°
2026-04-29 11:47 42.97786 28.56704 36163 ft 483 kts 178°
2026-04-29 11:47 42.91137 28.58201 36169 ft 485 kts 177°
2026-04-29 11:48 42.84518 28.59688 36166 ft 483 kts 177°
2026-04-29 11:48 42.77884 28.61173 36168 ft 483 kts 177°
2026-04-29 11:49 42.71230 28.62660 36154 ft 483 kts 177°
2026-04-29 11:49 42.64616 28.64138 36161 ft 484 kts 177°
2026-04-29 11:50 42.57966 28.65617 36165 ft 483 kts 178°
2026-04-29 11:50 42.51318 28.67094 36152 ft 484 kts 178°
2026-04-29 11:51 42.44711 28.68559 36159 ft 483 kts 178°
2026-04-29 11:51 42.38051 28.70034 36158 ft 483 kts 178°
2026-04-29 11:52 42.31466 28.71488 36158 ft 483 kts 178°
2026-04-29 11:52 42.24822 28.72951 36157 ft 484 kts 178°
2026-04-29 11:53 42.18214 28.74402 36155 ft 483 kts 178°
2026-04-29 11:53 42.11549 28.75862 36152 ft 484 kts 178°
2026-04-29 11:54 42.04920 28.76985 36146 ft 477 kts 183°
2026-04-29 11:54 41.98318 28.77333 36147 ft 476 kts 186°
2026-04-29 11:55 41.91700 28.77470 36143 ft 475 kts 186°
2026-04-29 11:55 41.85097 28.77618 36143 ft 475 kts 186°
2026-04-29 11:56 41.78511 28.77813 36142 ft 476 kts 185°
2026-04-29 11:56 41.71889 28.78044 36137 ft 475 kts 185°
2026-04-29 11:57 41.65313 28.78290 36133 ft 476 kts 185°
2026-04-29 11:57 41.58682 28.78547 36138 ft 475 kts 185°
2026-04-29 11:58 41.52110 28.78802 36129 ft 476 kts 185°
2026-04-29 11:58 41.45452 28.79061 36133 ft 476 kts 185°
2026-04-29 11:59 41.38862 28.79318 36133 ft 475 kts 185°
2026-04-29 11:59 41.32309 28.79573 36131 ft 477 kts 184°
2026-04-29 12:00 41.25681 28.79832 36130 ft 476 kts 184°
2026-04-29 12:00 41.19043 28.80093 36128 ft 476 kts 184°
2026-04-29 12:01 41.12405 28.80372 36130 ft 477 kts 184°
2026-04-29 12:01 41.05775 28.80658 36130 ft 476 kts 184°
2026-04-29 12:02 40.99123 28.81067 36120 ft 479 kts 180°
2026-04-29 12:02 40.92590 28.82895 36120 ft 487 kts 167°
2026-04-29 12:03 40.86249 28.86046 36120 ft 491 kts 162°
2026-04-29 12:03 40.79989 28.89581 36115 ft 491 kts 161°
2026-04-29 12:04 40.73704 28.93160 36103 ft 490 kts 161°
2026-04-29 12:04 40.67444 28.96650 36094 ft 489 kts 161°
2026-04-29 12:05 40.61196 29.00069 36107 ft 490 kts 161°
2026-04-29 12:05 40.54892 29.03485 36100 ft 489 kts 161°
2026-04-29 12:06 40.48610 29.06874 36103 ft 489 kts 161°
2026-04-29 12:06 40.42307 29.10266 36099 ft 489 kts 161°
2026-04-29 12:07 40.36066 29.13618 36087 ft 487 kts 161°
2026-04-29 12:07 40.29794 29.16980 36067 ft 488 kts 161°
2026-04-29 12:08 40.23475 29.20360 36066 ft 488 kts 161°
2026-04-29 12:08 40.17165 29.23730 36077 ft 489 kts 161°
2026-04-29 12:09 40.10891 29.27075 36087 ft 488 kts 161°
2026-04-29 12:09 40.04608 29.30419 36087 ft 486 kts 161°
2026-04-29 12:10 39.98369 29.33732 36086 ft 487 kts 161°
2026-04-29 12:10 39.92081 29.37063 36084 ft 487 kts 161°
2026-04-29 12:11 39.85848 29.40403 36085 ft 487 kts 160°
2026-04-29 12:11 39.79630 29.43827 36085 ft 488 kts 160°
2026-04-29 12:12 39.73395 29.47276 36084 ft 486 kts 160°
2026-04-29 12:12 39.67206 29.50687 36088 ft 485 kts 160°
2026-04-29 12:13 39.60991 29.54054 36090 ft 484 kts 161°
2026-04-29 12:13 39.54732 29.57215 36093 ft 484 kts 162°
2026-04-29 12:14 39.48421 29.60316 36095 ft 484 kts 162°
2026-04-29 12:14 39.42138 29.63401 36091 ft 484 kts 162°
2026-04-29 12:15 39.35854 29.66501 36093 ft 482 kts 162°
2026-04-29 12:15 39.29581 29.69603 36098 ft 482 kts 162°
2026-04-29 12:16 39.23345 29.72688 36097 ft 482 kts 162°
2026-04-29 12:16 39.17067 29.75789 36103 ft 482 kts 162°
2026-04-29 12:17 39.10834 29.78863 36105 ft 481 kts 162°
2026-04-29 12:17 39.04591 29.81937 36104 ft 482 kts 162°
2026-04-29 12:18 38.98353 29.85002 36111 ft 480 kts 162°
2026-04-29 12:18 38.92108 29.88066 36104 ft 481 kts 162°
2026-04-29 12:19 38.85875 29.91105 36105 ft 481 kts 162°
2026-04-29 12:19 38.79617 29.94091 36107 ft 480 kts 163°
2026-04-29 12:20 38.73328 29.97064 36111 ft 480 kts 163°
2026-04-29 12:20 38.67090 30.00009 36113 ft 480 kts 163°
2026-04-29 12:21 38.60789 30.02983 36101 ft 481 kts 163°
2026-04-29 12:21 38.54536 30.05934 36101 ft 481 kts 163°
2026-04-29 12:22 38.48261 30.08891 36104 ft 480 kts 163°
2026-04-29 12:22 38.41982 30.11846 36099 ft 479 kts 163°
2026-04-29 12:23 38.35755 30.14771 36099 ft 480 kts 163°
2026-04-29 12:23 38.29476 30.17700 36094 ft 479 kts 163°
2026-04-29 12:24 38.23216 30.20574 36094 ft 480 kts 163°
2026-04-29 12:24 38.16930 30.23450 36097 ft 479 kts 163°
2026-04-29 12:25 38.10634 30.26330 36097 ft 479 kts 163°
2026-04-29 12:26 38.01223 30.30634 36112 ft 479 kts 163°
2026-04-29 12:26 37.94956 30.33483 36113 ft 478 kts 163°
2026-04-29 12:27 37.88689 30.36320 36112 ft 478 kts 163°
2026-04-29 12:27 37.82423 30.39149 36103 ft 479 kts 163°
2026-04-29 12:28 37.76119 30.41991 36095 ft 479 kts 163°
2026-04-29 12:28 37.69842 30.44818 36092 ft 479 kts 163°
2026-04-29 12:29 37.63567 30.47639 36085 ft 478 kts 163°
2026-04-29 12:29 37.57309 30.50448 36081 ft 478 kts 163°
2026-04-29 12:30 37.51089 30.53235 36066 ft 478 kts 163°
2026-04-29 12:30 37.44810 30.56042 36053 ft 479 kts 163°
2026-04-29 12:31 37.38509 30.58857 36047 ft 479 kts 163°
2026-04-29 12:31 37.32245 30.61649 36039 ft 479 kts 163°
2026-04-29 12:32 37.25938 30.64452 36030 ft 479 kts 163°
2026-04-29 12:32 37.19677 30.67233 36020 ft 478 kts 164°
2026-04-29 12:33 37.13442 30.69996 36007 ft 478 kts 163°
2026-04-29 12:33 37.07157 30.72777 35996 ft 479 kts 163°
2026-04-29 12:34 37.00868 30.75555 35984 ft 479 kts 163°
2026-04-29 12:34 36.94569 30.78219 35975 ft 478 kts 167°
2026-04-29 12:35 36.88046 30.79741 35976 ft 471 kts 179°
2026-04-29 12:35 36.81517 30.80147 35977 ft 469 kts 182°
2026-04-29 12:36 36.75021 30.80268 35962 ft 468 kts 183°
2026-04-29 12:36 36.68491 30.80381 35962 ft 470 kts 183°
2026-04-29 12:37 36.61988 30.80539 35969 ft 470 kts 182°
2026-04-29 12:37 36.55432 30.80732 35967 ft 470 kts 182°
2026-04-29 12:38 36.48911 30.80945 35967 ft 470 kts 182°
2026-04-29 12:38 36.42374 30.81168 35965 ft 469 kts 182°
2026-04-29 12:39 36.35833 30.81391 35964 ft 469 kts 182°
2026-04-29 12:39 36.29334 30.81607 35965 ft 469 kts 182°
2026-04-29 12:40 36.22791 30.81824 35965 ft 470 kts 182°
2026-04-29 12:40 36.16288 30.82040 35966 ft 469 kts 182°
2026-04-29 12:41 36.09769 30.82257 35968 ft 469 kts 182°
2026-04-29 12:41 36.03243 30.82477 35969 ft 469 kts 182°
2026-04-29 12:42 35.96719 30.82809 35966 ft 469 kts 181°
2026-04-29 12:42 35.90192 30.83226 35970 ft 469 kts 181°
2026-04-29 12:43 35.83650 30.83650 35977 ft 470 kts 181°
2026-04-29 12:43 35.77143 30.84060 35985 ft 470 kts 181°
2026-04-29 12:44 35.70666 30.85271 35981 ft 478 kts 165°
2026-04-29 12:44 35.67567 30.86907 35991 ft 483 kts 154°
2026-04-29 12:44 35.64764 30.89201 35984 ft 488 kts 143°
2026-04-29 12:45 35.60026 30.95142 35983 ft 491 kts 126°
2026-04-29 12:45 35.58324 30.98737 35989 ft 493 kts 115°
2026-04-29 12:45 35.57032 31.02670 35996 ft 494 kts 110°
2026-04-29 12:46 35.54905 31.10605 35987 ft 492 kts 106°
2026-04-29 12:46 35.52977 31.18667 35990 ft 494 kts 105°
2026-04-29 12:47 35.51040 31.26733 35988 ft 493 kts 106°
2026-04-29 12:47 35.49056 31.34742 35985 ft 493 kts 106°
2026-04-29 12:48 35.47020 31.42782 35987 ft 494 kts 107°
2026-04-29 12:48 35.44976 31.50766 35984 ft 493 kts 107°
2026-04-29 12:49 35.42951 31.58626 35971 ft 468 kts 107°
2026-04-29 12:49 35.41990 31.62345 35675 ft 461 kts 107°
2026-04-29 12:49 35.41026 31.66072 35207 ft 460 kts 107°
2026-04-29 12:49 35.40053 31.69835 34705 ft 459 kts 107°
2026-04-29 12:50 35.39093 31.73538 34230 ft 457 kts 107°
2026-04-29 12:50 35.38134 31.77233 33682 ft 455 kts 107°
2026-04-29 12:50 35.37181 31.80903 33160 ft 452 kts 107°
2026-04-29 12:50 35.36246 31.84501 32668 ft 448 kts 107°
2026-04-29 12:51 35.35302 31.88126 32163 ft 445 kts 107°
2026-04-29 12:51 35.34365 31.91716 31665 ft 442 kts 107°
2026-04-29 12:51 35.33431 31.95292 31157 ft 438 kts 107°
2026-04-29 12:51 35.32510 31.98815 30652 ft 435 kts 107°
2026-04-29 12:52 35.31602 32.02280 30161 ft 432 kts 106°
2026-04-29 12:52 35.30690 32.05757 29646 ft 428 kts 106°
2026-04-29 12:52 35.29784 32.09211 29146 ft 424 kts 106°
2026-04-29 12:52 35.28894 32.12597 28653 ft 420 kts 106°
2026-04-29 12:53 35.27996 32.16009 28155 ft 416 kts 106°
2026-04-29 12:53 35.27123 32.19322 27674 ft 412 kts 106°
2026-04-29 12:53 35.26238 32.22677 27188 ft 409 kts 106°
2026-04-29 12:53 35.25379 32.25928 26709 ft 405 kts 106°
2026-04-29 12:54 35.24518 32.29183 26222 ft 401 kts 106°
2026-04-29 12:54 35.23667 32.32397 25739 ft 398 kts 106°
2026-04-29 12:54 35.22813 32.35618 25256 ft 394 kts 106°
2026-04-29 12:54 35.21974 32.38778 24780 ft 390 kts 106°
2026-04-29 12:55 35.21149 32.41883 24306 ft 387 kts 106°
2026-04-29 12:55 35.20321 32.44995 23836 ft 383 kts 106°
2026-04-29 12:55 35.19508 32.48045 23372 ft 379 kts 106°
2026-04-29 12:55 35.18693 32.51099 22916 ft 376 kts 106°
2026-04-29 12:56 35.17885 32.54129 22453 ft 372 kts 106°
2026-04-29 12:56 35.17090 32.57104 22002 ft 369 kts 106°
2026-04-29 12:56 35.16305 32.60038 21558 ft 365 kts 106°
2026-04-29 12:56 35.15521 32.62965 21108 ft 362 kts 106°
2026-04-29 12:57 35.14746 32.65858 20658 ft 359 kts 107°
2026-04-29 12:57 35.13975 32.68730 20214 ft 356 kts 107°
2026-04-29 12:57 35.13200 32.71614 19770 ft 353 kts 107°
2026-04-29 12:57 35.12441 32.74435 19331 ft 350 kts 107°
2026-04-29 12:58 35.11690 32.77218 18897 ft 347 kts 107°
2026-04-29 12:58 35.10937 32.80009 18466 ft 344 kts 107°
2026-04-29 12:58 35.10200 32.82742 18044 ft 342 kts 107°
2026-04-29 12:58 35.09454 32.85510 17603 ft 339 kts 107°
2026-04-29 12:59 35.08723 32.88218 17168 ft 337 kts 107°
2026-04-29 12:59 35.07990 32.90928 16747 ft 334 kts 107°
2026-04-29 12:59 35.07267 32.93594 16323 ft 332 kts 107°
2026-04-29 12:59 35.06527 32.96252 15907 ft 330 kts 108°
2026-04-29 13:00 35.05777 32.98869 15490 ft 327 kts 108°
2026-04-29 13:00 35.05032 33.01441 15080 ft 325 kts 109°
2026-04-29 13:00 35.04279 33.04034 14668 ft 323 kts 109°
2026-04-29 13:00 35.03539 33.06594 14249 ft 321 kts 109°
2026-04-29 13:01 35.02803 33.09143 13836 ft 318 kts 109°
2026-04-29 13:01 35.02070 33.11685 13431 ft 316 kts 109°
2026-04-29 13:01 35.01343 33.14203 13016 ft 314 kts 109°
2026-04-29 13:01 35.00618 33.16715 12611 ft 312 kts 108°
2026-04-29 13:02 34.99904 33.19190 12199 ft 310 kts 108°
2026-04-29 13:02 34.99196 33.21644 11793 ft 308 kts 108°
2026-04-29 13:02 34.98492 33.24086 11412 ft 305 kts 109°
2026-04-29 13:02 34.97785 33.26535 11000 ft 303 kts 108°
2026-04-29 13:03 34.97095 33.28924 10596 ft 300 kts 109°
2026-04-29 13:03 34.96407 33.31301 10224 ft 297 kts 108°
2026-04-29 13:03 34.95724 33.33658 9915 ft 292 kts 109°
2026-04-29 13:03 34.95054 33.35966 9609 ft 289 kts 108°
2026-04-29 13:04 34.94389 33.38253 9211 ft 288 kts 109°
2026-04-29 13:04 34.93717 33.40562 8840 ft 286 kts 109°
2026-04-29 13:04 34.93069 33.42817 8474 ft 283 kts 107°
2026-04-29 13:04 34.92591 33.45144 8115 ft 281 kts 101°
2026-04-29 13:05 34.92268 33.47462 7758 ft 279 kts 98°
2026-04-29 13:05 34.91988 33.49776 7404 ft 277 kts 97°
2026-04-29 13:05 34.91705 33.52114 7041 ft 276 kts 98°
2026-04-29 13:05 34.91415 33.54390 6696 ft 274 kts 98°
2026-04-29 13:06 34.91115 33.56671 6344 ft 272 kts 98°
2026-04-29 13:06 34.90812 33.58936 5991 ft 271 kts 99°
2026-04-29 13:06 34.90509 33.61180 5649 ft 269 kts 99°
2026-04-29 13:06 34.90206 33.63422 5306 ft 268 kts 99°
2026-04-29 13:07 34.89904 33.65663 4963 ft 267 kts 100°
2026-04-29 13:07 34.89607 33.67874 4651 ft 264 kts 100°
2026-04-29 13:07 34.89317 33.70038 4523 ft 254 kts 100°
2026-04-29 13:07 34.89037 33.72116 4449 ft 243 kts 99°
2026-04-29 13:08 34.88769 33.74107 4381 ft 234 kts 99°
2026-04-29 13:08 34.88508 33.76027 4322 ft 231 kts 99°
2026-04-29 13:08 34.88348 33.77956 4059 ft 230 kts 87°
2026-04-29 13:08 34.88743 33.79836 3775 ft 228 kts 60°
2026-04-29 13:09 34.89701 33.81350 3523 ft 225 kts 43°
2026-04-29 13:09 34.90921 33.82496 3253 ft 222 kts 28°
2026-04-29 13:09 34.92360 33.83080 2989 ft 218 kts
2026-04-29 13:09 34.93864 33.82989 2733 ft 214 kts 348°
2026-04-29 13:10 34.95274 33.82437 2488 ft 211 kts 332°
2026-04-29 13:10 34.96425 33.81374 2265 ft 206 kts 310°
2026-04-29 13:10 34.97216 33.79972 2185 ft 195 kts 296°
2026-04-29 13:10 34.97552 33.79023 2146 ft 191 kts 287°
2026-04-29 13:11 34.97766 33.77416 2093 ft 194 kts 269°
2026-04-29 13:11 34.97587 33.75810 2039 ft 194 kts 253°
2026-04-29 13:11 34.97043 33.74313 1983 ft 192 kts 236°
2026-04-29 13:11 34.96210 33.73112 1931 ft 179 kts 225°
2026-04-29 13:12 34.95333 33.72053 1747 ft 175 kts 224°
2026-04-29 13:12 34.94506 33.71056 1578 ft 162 kts 224°
2026-04-29 13:12 34.93719 33.70093 1459 ft 155 kts 225°
2026-04-29 13:12 34.92977 33.69183 1254 ft 151 kts 224°
2026-04-29 13:13 34.92256 33.68303 1038 ft 144 kts 224°
2026-04-29 13:13 34.91552 33.67443 867 ft 144 kts 224°
2026-04-29 13:13 34.90845 33.66581 685 ft 141 kts 223°
2026-04-29 13:13 34.90151 33.65754 498 ft 139 kts 223°
2026-04-29 13:14 34.89442 33.64957 327 ft 136 kts 222°
2026-04-29 13:14 34.88782 33.64145 181 ft 137 kts 224°
2026-04-29 13:14 34.88118 33.63308 47 ft 137 kts 224°
2026-04-29 13:14 34.87506 33.62561 16 ft 102 kts 226°
2026-04-29 13:15 34.87125 33.62098 12 ft 54 kts 226°
2026-04-29 13:15 34.86989 33.61867 13 ft 25 kts 253°
2026-04-29 13:15 34.86951 33.61695 15 ft 16 kts 257°
2026-04-29 13:15 34.86925 33.61597 18 ft 8 kts 251°
2026-04-29 13:16 34.86907 33.61517 21 ft 12 kts 258°
2026-04-29 13:16 34.86882 33.61401 26 ft 13 kts 278°
2026-04-29 13:16 34.86931 33.61325 29 ft 11 kts 317°
2026-04-29 13:16 34.86991 33.61251 33 ft 13 kts 313°
2026-04-29 13:17 34.87063 33.61163 37 ft 16 kts 315°
2026-04-29 13:17 34.87140 33.61073 40 ft 14 kts 315°
2026-04-29 13:17 34.87138 33.61024 41 ft 6 kts 223°
2026-04-29 13:17 34.87112 33.60992 41 ft 0 kts 225°